Torna al catalogo

STARLINK-30551

AttivoComunicazioniVLEO
NORAD 58083·PAYLOAD·🇺🇸 United States

Lanciato Oct 18, 2023 da Cape Canaveral Space Force Station

Loading…

Prossimi Passaggi (prossime 24 ore)

TLE

AggiornatoSource: CelesTrak SupGP

Epoca: Sep 15, 2026, 02:27 UTC

1 58083C 23160J   26258.10256944  .00019561  00000+0  70822-3 0  2581
2 58083  42.9993  91.5501 0001118 280.3453 110.6198 15.27581753    10

Traccia STARLINK-30551 in tempo reale con AllMySat

Download on the App Store